Weather History for Williston, ND

Change the Weather History Date:

Friday, December 5, 2014

  Actual Average Record
Temperature  
Mean Temperature 8 °F 17 °F  
Max Temperature 20 °F 27 °F 60 °F (1939)
Min Temperature -5 °F 7 °F -28 °F (1972)
Degree Days  
Heating Degree Days 57 48  
Month to date heating degree days 290 236  
Since 1 July heating degree days 2483 2398  
Cooling Degree Days 0 0  
Month to date cooling degree days 0 0  
Year to date cooling degree days 425 456  
Moisture  
Dew Point 7 °F    
Average Humidity 88    
Maximum Humidity 96    
Minimum Humidity 79    
Precipitation  
Precipitation 0.00 in 0.02 in 0.51 in (2001)
Month to date precipitation 0.00 0.10  
Year to date precipitation 10.65 13.85  
Snow  
Snow 0.00 in 0.20 in 4.40 in (2001)
Month to date snowfall 0.0 1.2  
Since 1 July snowfall 0.0 10.1  
Snow Depth -    
Sea Level Pressure  
Sea Level Pressure 30.38 in    
Wind  
Wind Speed 4 mph (NE)    
Max Wind Speed 13 mph    
Max Gust Speed 17 mph    
Visibility 7 miles    
Events      
T = Trace of Precipitation, MM = Missing Value Source: NWS Daily Summary

Daily Weather History Graph

Daily Weather History Graph

Search for Another Location

Airport:

Trip Planner

Search our weather history database for the weather conditions in past years. The results will help you decide how hot, cold, wet, or windy it might be!

Date:

Astronomy

Dec. 05, 2014 Rise Set
Actual Time 8:28 AM CST 5:01 PM CST
Civil Twilight 7:52 AM CST 5:37 PM CST
Nautical Twilight 7:13 AM CST 6:16 PM CST
Astronomical Twilight 6:35 AM CST 6:54 PM CST
Moon 4:56 PM CST (12/5) 7:17 AM CST (12/5)
Length of Visible Light 9h 44m
Length of Day
8h 32m
Waxing Gibbous, 99% of the Moon is Illuminated
Dec 5
Waxing Gibbous
Dec 6
Full
Dec 14
Last Quarter
Dec 21
New
Dec 28
First Quarter

Hourly Weather History & Observations

Time (CST) Temp. Windchill Dew Point Humidity Pressure Visibility Wind Dir Wind Speed Gust Speed Precip Events Conditions
12:52 AM 1.9 °F -9.2 °F -0.9 °F 88% 30.13 in 9.0 mi ESE 5.8 mph - N/A   Clear
1:52 AM -0.0 °F - -2.9 °F 88% 30.14 in 10.0 mi Calm Calm - N/A   Clear
2:52 AM 3.0 °F -4.4 °F -0.9 °F 84% 30.16 in 9.0 mi South 3.5 mph - N/A   Clear
3:52 AM 3.0 °F -4.4 °F -0.9 °F 84% 30.20 in 9.0 mi North 3.5 mph - N/A   Clear
4:52 AM 3.0 °F -4.4 °F 1.0 °F 91% 30.23 in 9.0 mi North 3.5 mph - N/A   Clear
5:52 AM -0.9 °F -8.9 °F -5.1 °F 83% 30.26 in 10.0 mi NE 3.5 mph - N/A   Clear
6:52 AM -0.9 °F - -6.0 °F 79% 30.31 in 9.0 mi Calm Calm - N/A   Clear
7:52 AM -0.9 °F - -6.0 °F 79% 30.33 in 9.0 mi Calm Calm - N/A   Clear
8:52 AM -0.0 °F - -4.0 °F 83% 30.38 in 7.0 mi Calm Calm - N/A   Clear
9:36 AM -0.0 °F -7.9 °F -2.9 °F 88% 30.26 in 6.0 mi NNW 3.5 mph - N/A   Mostly Cloudy
9:41 AM 1.0 °F - -2.9 °F 83% 30.26 in 4.0 mi Calm Calm - N/A   Mostly Cloudy
9:49 AM 1.4 °F - -0.4 °F 92% 30.27 in 2.5 mi Calm Calm - N/A   Overcast
9:52 AM 1.9 °F - -0.9 °F 88% 30.43 in 2.5 mi Calm Calm - N/A   Overcast
9:58 AM 3.9 °F - -0.0 °F 84% 30.28 in 3.0 mi Calm Calm - N/A   Overcast
10:04 AM 5.0 °F -2.1 °F 1.4 °F 85% 30.28 in 4.0 mi South 3.5 mph - N/A   Overcast
10:52 AM 9.0 °F - 7.0 °F 92% 30.45 in 4.0 mi Calm Calm - N/A   Overcast
11:08 AM 10.0 °F - 8.1 °F 92% 30.30 in 2.0 mi Calm Calm - N/A   Overcast
11:21 AM 12.0 °F 5.9 °F 10.0 °F 92% 30.31 in 1.5 mi NW 3.5 mph - N/A   Overcast
11:52 AM 14.0 °F 2.9 °F 12.0 °F 92% 30.46 in 1.8 mi NNW 8.1 mph - N/A   Overcast
11:59 AM 15.1 °F 4.2 °F 12.0 °F 88% 30.32 in 2.5 mi NNW 8.1 mph - N/A   Overcast
12:06 PM 16.0 °F 5.3 °F 12.9 °F 88% 30.33 in 3.0 mi NNW 8.1 mph - N/A   Overcast
12:52 PM 18.0 °F 6.9 °F 15.1 °F 88% 30.45 in 9.0 mi NNE 9.2 mph - N/A   Overcast
1:52 PM 19.0 °F 12.3 °F 15.1 °F 85% 30.47 in 9.0 mi North 4.6 mph - N/A   Overcast
2:52 PM 19.9 °F 14.9 °F 15.1 °F 81% 30.47 in 10.0 mi NE 3.5 mph - N/A   Overcast
3:30 PM 19.9 °F 13.4 °F 15.1 °F 81% 30.34 in 10.0 mi NE 4.6 mph - N/A   Overcast
3:52 PM 19.9 °F 13.4 °F 15.1 °F 81% 30.48 in 10.0 mi NE 4.6 mph - N/A   Overcast
4:52 PM 19.9 °F 14.9 °F 15.1 °F 81% 30.50 in 10.0 mi NNE 3.5 mph - N/A   Overcast
5:52 PM 19.9 °F 12.1 °F 15.1 °F 81% 30.52 in 10.0 mi NNE 5.8 mph - N/A   Overcast
6:40 PM 19.9 °F 11.1 °F 15.1 °F 81% 30.39 in 10.0 mi ENE 6.9 mph - N/A   Overcast
6:52 PM 19.9 °F 10.1 °F 15.1 °F 81% 30.53 in 10.0 mi ENE 8.1 mph - N/A   Overcast
7:52 PM 18.0 °F 9.8 °F 15.1 °F 88% 30.55 in 10.0 mi ENE 5.8 mph - N/A   Overcast
8:52 PM 18.0 °F 9.8 °F 14.0 °F 84% 30.56 in 10.0 mi East 5.8 mph - N/A   Overcast
9:52 PM 17.1 °F 8.7 °F 12.9 °F 84% 30.55 in 5.0 mi ESE 5.8 mph - N/A   Overcast
10:14 PM 17.1 °F 7.6 °F 12.9 °F 84% 30.39 in 10.0 mi SE 6.9 mph - N/A   Overcast
10:52 PM 17.1 °F - 14.0 °F 88% 30.54 in 10.0 mi Calm Calm - N/A   Overcast
11:52 PM 18.0 °F 12.7 °F 14.0 °F 84% 30.53 in 10.0 mi ENE 3.5 mph - N/A   Overcast